GW5866 Weather Reports


Display with metric or nautical units.
time (UTC)temp
F
wind
direction
speed
MPH
gust
MPH
rain 1hr
in
rain 24hr
in
rain mn
in
humidity
%
barometer
mb
20260503223021 62 23 1.0 8.0 0.00 0.00 0.00 33 1015.9
20260503221531 62 39 2.0 4.0 0.00 0.00 0.00 32 1015.9
20260503220015 62 17 3.0 7.0 0.00 0.00 0.00 30 1015.9
20260503214515 63 302 2.0 8.0 0.00 0.00 0.00 30 1015.9
20260503213029 63 57 3.0 13.0 0.00 0.00 0.00 29 1015.9
20260503211525 63 217 3.0 9.0 0.00 0.00 0.00 29 1015.8
20260503210009 64 305 5.0 11.0 0.00 0.00 0.00 29 1015.9
20260503204518 63 343 2.0 6.0 0.00 0.00 0.00 30 1015.8
20260503203021 63 328 4.0 9.0 0.00 0.00 0.00 29 1015.9
20260503201529 63 331 4.0 9.0 0.00 0.00 0.00 28 1016.0
20260503200033 63 24 5.0 12.0 0.00 0.00 0.00 28 1016.2
20260503194513 63 265 4.0 11.0 0.00 0.00 0.00 29 1016.4
20260503193018 63 163 3.0 14.0 0.00 0.00 0.00 30 1016.4
20260503191526 63 254 3.0 12.0 0.00 0.00 0.00 30 1016.7
20260503190025 64 279 3.0 9.0 0.00 0.00 0.00 31 1016.8
20260503184527 63 11 3.0 11.0 0.00 0.00 0.00 31 1016.9
20260503183027 63 305 2.0 9.0 0.00 0.00 0.00 34 1017.0
20260503181535 62 46 2.0 14.0 0.00 0.00 0.00 33 1017.0
20260503180022 61 261 3.0 14.0 0.00 0.00 0.00 34 1017.1
20260503174527 62 80 3.0 12.0 0.00 0.00 0.00 33 1017.2
20260503173043 62 38 2.0 10.0 0.00 0.00 0.00 36 1017.3
20260503171521 60 312 4.0 14.0 0.00 0.00 0.00 34 1017.5
20260503081524 53 342 4.0 12.0 0.00 0.00 0.00 60 1013.3
20260503071526 52 360 1.0 3.0 0.00 0.00 0.00 66 1012.8
20260503054525 52 326 0.0 2.0 0.00 0.00 0.00 65 1012.2
20260503053036 52 5 0.0 4.0 0.00 0.00 0.00 64 1012.2
20260503051529 53 360 0.0 3.0 0.00 0.00 0.00 64 1012.3
20260503050022 53 288 0.0 3.0 0.00 0.00 0.00 62 1012.4
20260503044559 53 333 0.0 2.0 0.00 0.00 0.00 63 1012.2
20260503043026 54 336 0.0 2.0 0.00 0.00 0.00 62 1012.3
20260503041530 54 352 0.0 2.0 0.00 0.00 0.00 63 1012.3
20260503040019 54 316 0.0 3.0 0.00 0.00 0.00 63 1012.4
20260503034524 54 309 0.0 2.0 0.00 0.00 0.00 63 1012.3
20260503033025 55 294 1.0 3.0 0.00 0.00 0.00 62 1012.1
20260503031528 55 346 0.0 3.0 0.00 0.00 0.00 61 1012.0
20260503030017 55 17 1.0 4.0 0.00 0.00 0.00 60 1012.2
20260503024523 55 284 1.0 4.0 0.00 0.00 0.00 59 1012.4
20260503023007 56 270 1.0 4.0 0.00 0.00 0.00 59 1012.3
20260503021517 56 352 2.0 5.0 0.00 0.00 0.00 58 1012.1
20260503020030 56 5 2.0 4.0 0.00 0.00 0.00 57 1012.2
20260503014519 56 352 4.0 10.0 0.00 0.00 0.00 56 1012.1
20260503013024 56 17 5.0 11.0 0.00 0.00 0.00 55 1012.0
20260503011507 56 360 1.0 8.0 0.00 0.00 0.00 55 1011.7
20260503010011 56 360 0.0 13.0 0.00 0.00 0.00 55 1011.8
20260503004543 56 13 3.0 10.0 0.00 0.00 0.00 1011.6
20260503003031 56 15 1.0 6.0 0.00 0.00 0.00 53 1011.6
20260503001524 56 48 3.0 11.0 0.00 0.00 0.00 53 1011.3
20260503000019 56 13 1.0 10.0 0.00 0.00 0.00 56 1011.2
20260502234521 56 352 3.0 11.0 0.00 0.00 0.00 54 1011.3
20260502233021 56 41 3.0 12.0 0.00 0.00 0.00 52 1011.3
20260502231530 56 32 3.0 11.0 0.00 0.00 0.00 48 1011.1
20260502230029 56 32 5.0 13.0 0.00 0.00 0.00 43 1011.2
20260502224516 56 45 4.0 9.0 0.00 0.00 0.00 40 1011.2